TUMNANOSAT (53464 NORAD) Tracking and Keplerian Element Data

This shows tracking and keplerian element data for the satellite.

Feedback or suggestion? Click here.




ElementValue
Catalog53464
NameTUMNANOSAT
Epoch Orbit702
Epoch Day269.52304172
Epoch Year2022
RAAN193.6778
Inclination51.64
Eccentricity0.0004598
Argument of Perigee292.9988
Mean Anonmoly67.0518
Mean Motion15.54807926
Decay Rate0.00050171
L11 53464U 98067UD 22269.52304172 .00050171 00000+0 74151-3 0 9991
L22 53464 51.6400 193.6778 0004598 292.9988 67.0518 15.54807926 7027

Live tracking and technical data element details for TUMNANOSAT (NORAD 53464). TUMNANOSAT can be tracked NOW for your location showing map with azimuth and elevation plus other details from your city location.

Track the satellite on the map from your city or location and see movement details for azimuth, elevation, latitude, longitude, range, height, and movement on the map or in text.







IsCatalogInMostPopularTable: catalog: 53464, numindb: 3
Update: records affected: 1



GetName: 53464 TUMNANOSAT

Hit Count: updated at: Wed, 28 Sep 2022 22:58:47 GMT